EW8445 Sea Isle City NJ US current weather conditions

sailwx.info

Wind from 056 at 11 knots gusting 19

Air temperature 23.3° C
Dewpoint 22.5° C

Last reported at 2020-Jul-10 10:01 UTC.
Time now 2020-Jul-10 10:26 UTC

Location: N 39°07' W 074°43'.
View on Google Maps.

See reports from other nearby stations

  
Tides and Currents Weather Stations Pressure Air Temp Water Temp Dewpoint Dewpoint Depression Visibility Wind Speed Wind Dir Waves Ship Positions
date/time (UTC)wind fromknots sea level pressurealtimeterstation pressurevisibilityair tempwater tempwave heightnotes
2020-Jul-10 10:01 056 11 gusting 19 23.3
2020-Jul-10 09:46 067 9 gusting 16 22.8
2020-Jul-10 09:30 060 7 gusting 13 23.9
2020-Jul-10 09:15 065 7 gusting 13 23.3
2020-Jul-10 09:00 072 8 gusting 13 23.3
2020-Jul-10 08:45 084 6 gusting 13 23.3
2020-Jul-10 08:30 099 6 gusting 9 23.3
2020-Jul-10 08:15 084 4 gusting 6 23.9
2020-Jul-10 08:00 098 3 gusting 9 23.3
2020-Jul-10 07:45 101 6 gusting 11 23.3
2020-Jul-10 07:30 128 4 gusting 11 23.3
2020-Jul-10 07:15 120 6 gusting 11 24.4
2020-Jul-10 07:01 111 4 gusting 8 25.0
2020-Jul-10 06:46 104 4 gusting 7 25.0
2020-Jul-10 06:32 115 5 gusting 10 25.0
2020-Jul-10 06:17 124 5 gusting 9 25.0
2020-Jul-10 06:02 123 3 gusting 10 25.0
2020-Jul-10 05:46 112 6 gusting 9 25.0
2020-Jul-10 05:31 088 5 gusting 9 25.0
2020-Jul-10 05:16 103 5 gusting 8 25.0
2020-Jul-10 05:01 124 3 gusting 8 25.0
2020-Jul-10 04:46 095 4 gusting 8 25.0
2020-Jul-10 04:31 101 3 gusting 7 25.0
2020-Jul-10 04:17 110 5 gusting 9 25.0
2020-Jul-10 04:01 101 4 gusting 9 25.0
2020-Jul-10 03:46 128 6 gusting 9 25.0
2020-Jul-10 03:31 108 4 gusting 8 25.6
2020-Jul-10 03:15 105 3 gusting 6 25.6
2020-Jul-10 03:01 105 4 gusting 8 25.6
2020-Jul-10 02:46 101 4 gusting 8 25.6
2020-Jul-10 02:31 065 4 gusting 8 25.6
2020-Jul-10 02:16 107 4 gusting 7 25.6
2020-Jul-10 02:01 113 3 gusting 7 25.6
2020-Jul-10 01:46 082 3 gusting 6 25.6
2020-Jul-10 01:31 091 3 gusting 7 25.6
2020-Jul-10 01:15 092 4 gusting 7 25.6
2020-Jul-10 01:00 098 3 gusting 6 25.6
2020-Jul-10 00:46 103 2 gusting 6 25.6
2020-Jul-10 00:30 078 3 gusting 7 25.6
2020-Jul-10 00:16 091 4 gusting 7 25.6
2020-Jul-10 00:00 082 2 gusting 7 26.1
2020-Jul-09 23:46 092 3 gusting 7 26.1
2020-Jul-09 23:30 104 5 gusting 8 26.1
2020-Jul-09 23:16 103 6 gusting 9 26.7
2020-Jul-09 23:00 082 5 gusting 8 26.7
2020-Jul-09 22:46 093 4 gusting 7 26.7
2020-Jul-09 22:31 072 4 gusting 7 26.7
2020-Jul-09 22:15 072 4 gusting 7 26.7
2020-Jul-09 22:00 122 3 gusting 6 26.7
2020-Jul-09 21:45 087 3 gusting 7 26.7
2020-Jul-09 21:30 117 4 gusting 7 26.7
2020-Jul-09 21:15 089 4 gusting 7 26.7
2020-Jul-09 20:45 111 5 gusting 8 27.2
2020-Jul-09 20:30 122 4 gusting 8 27.2
2020-Jul-09 20:15 103 6 gusting 9 27.2
2020-Jul-09 20:00 089 5 gusting 9 27.2
2020-Jul-09 19:45 068 5 gusting 9 27.2
2020-Jul-09 19:30 101 4 gusting 8 27.2
2020-Jul-09 19:15 102 3 gusting 8 26.7
2020-Jul-09 19:00 113 4 gusting 8 26.7
2020-Jul-09 18:45 087 4 gusting 8 26.7
2020-Jul-09 18:30 116 5 gusting 8 26.7
2020-Jul-09 18:15 081 5 gusting 8 26.7
2020-Jul-09 18:00 120 6 gusting 8 26.7
2020-Jul-09 17:45 117 6 gusting 9 26.7
2020-Jul-09 17:30 150 5 gusting 7 26.7
2020-Jul-09 17:15 116 4 gusting 9 26.1
2020-Jul-09 17:00 079 3 gusting 6 26.7
2020-Jul-09 16:45 107 5 gusting 8 26.7
2020-Jul-09 16:30 123 5 gusting 9 26.1
2020-Jul-09 16:15 093 5 gusting 8 26.7
2020-Jul-09 16:01 122 3 gusting 7 26.7
2020-Jul-09 15:47 085 4 gusting 7 26.1
2020-Jul-09 15:32 072 5 gusting 7 26.1
2020-Jul-09 15:16 080 3 gusting 7 26.1
2020-Jul-09 15:01 122 5 gusting 7 26.1
2020-Jul-09 14:46 086 4 gusting 9 25.6
2020-Jul-09 14:32 111 6 gusting 8 25.6
2020-Jul-09 14:16 098 6 gusting 7 25.6
2020-Jul-09 14:01 108 4 gusting 7 25.6
2020-Jul-09 13:46 099 3 gusting 7 25.6
2020-Jul-09 13:31 089 3 gusting 8 25.6
2020-Jul-09 13:16 058 3 gusting 8 25.6
2020-Jul-09 13:02 091 4 gusting 9 25.6
2020-Jul-09 12:46 100 3 gusting 7 25.6
2020-Jul-09 12:31 101 1 gusting 7 25.6
2020-Jul-09 12:16 026 3 gusting 6 25.6
2020-Jul-09 12:01 068 1 gusting 6 25.0
2020-Jul-09 11:45 083 3 gusting 5 25.0
2020-Jul-09 11:30 089 3 gusting 5 25.0
2020-Jul-09 11:16 089 1 gusting 4 25.0
2020-Jul-09 11:00 125 0 gusting 2 24.4
2020-Jul-09 10:45 113 0 gusting 2 24.4
2020-Jul-09 10:30 115 0 gusting 1 24.4
2020-Jul-09 10:15 096 0 gusting 2 23.9
2020-Jul-09 10:01 082 0 gusting 1 23.9
2020-Jul-09 09:45 092 23.9
2020-Jul-09 09:30 131 23.9
2020-Jul-09 09:15 139 23.9
2020-Jul-09 09:00 134 23.9
2020-Jul-09 08:45 152 23.9
2020-Jul-09 08:30 119 0 gusting 1 23.9
2020-Jul-09 08:15 122 23.9
2020-Jul-09 08:01 158 0 gusting 2 23.9
2020-Jul-09 07:45 153 1 gusting 3 23.9
2020-Jul-09 07:31 138 0 gusting 1 23.9
2020-Jul-09 07:00 143 1 gusting 3 23.9
2020-Jul-09 06:45 157 1 gusting 4 23.9
2020-Jul-09 06:30 173 1 gusting 4 23.9
2020-Jul-09 06:16 148 3 gusting 6 23.9
2020-Jul-09 06:01 166 1 gusting 4 23.9
2020-Jul-09 05:46 124 0 gusting 2 23.9
2020-Jul-09 05:31 087 0 gusting 1 23.9
2020-Jul-09 05:16 111 0 gusting 2 23.9
2020-Jul-09 05:01 138 0 gusting 2 24.4
2020-Jul-09 04:46 150 1 gusting 4 24.4
2020-Jul-09 04:31 148 2 gusting 3 24.4
2020-Jul-09 04:15 177 2 gusting 3 24.4
2020-Jul-09 04:00 234 2 gusting 6 24.4
2020-Jul-09 03:45 174 3 gusting 6 24.4
2020-Jul-09 03:31 205 3 gusting 7 24.4
2020-Jul-09 03:15 153 3 gusting 8 24.4
2020-Jul-09 03:01 131 4 gusting 6 24.4
2020-Jul-09 02:45 198 3 gusting 6 24.4
2020-Jul-09 02:31 196 4 gusting 6 24.4
2020-Jul-09 02:15 195 2 gusting 6 24.4
2020-Jul-09 02:00 157 1 gusting 5 24.4
2020-Jul-09 01:45 204 1 gusting 5 24.4
2020-Jul-09 01:31 163 2 gusting 5 24.4
2020-Jul-09 01:15 189 1 gusting 5 24.4
2020-Jul-09 01:00 130 3 gusting 6 24.4
2020-Jul-09 00:46 158 4 gusting 6 25.0
2020-Jul-09 00:31 150 3 gusting 6 25.0
2020-Jul-09 00:15 111 2 gusting 6 25.0
2020-Jul-09 00:00 133 1 gusting 6 25.0
2020-Jul-08 23:45 136 2 gusting 6 25.6
2020-Jul-08 23:30 150 4 gusting 7 25.6
2020-Jul-08 23:15 172 1 gusting 5 26.1
2020-Jul-08 23:00 139 1 gusting 6 26.1
2020-Jul-08 22:45 146 4 gusting 7 26.1
2020-Jul-08 22:30 157 2 gusting 6 26.1
2020-Jul-08 22:15 122 3 gusting 6 26.1
2020-Jul-08 22:00 132 4 gusting 7 26.1
2020-Jul-08 21:45 105 2 gusting 7 26.7
2020-Jul-08 21:30 172 3 gusting 6 26.1
2020-Jul-08 21:15 131 3 gusting 6 26.7
2020-Jul-08 21:00 118 4 gusting 6 26.7
2020-Jul-08 20:45 139 2 gusting 7 26.7
2020-Jul-08 20:30 161 4 gusting 10 27.2
2020-Jul-08 20:15 193 3 gusting 8 27.2
2020-Jul-08 20:00 169 4 gusting 8 27.2
2020-Jul-08 19:45 198 3 gusting 10 27.2
2020-Jul-08 19:30 152 3 gusting 6 27.2
2020-Jul-08 19:15 131 5 gusting 9 27.2
2020-Jul-08 19:00 195 4 gusting 8 27.2
2020-Jul-08 18:45 170 4 gusting 9 27.2
2020-Jul-08 18:30 171 5 gusting 9 27.2
2020-Jul-08 18:15 207 4 gusting 12 27.2
2020-Jul-08 18:02 157 6 gusting 11 27.2
2020-Jul-08 17:46 205 5 gusting 11 27.2
2020-Jul-08 17:31 162 4 gusting 7 27.2
2020-Jul-08 17:16 169 4 gusting 8 26.7
2020-Jul-08 17:02 178 4 gusting 6 26.7
2020-Jul-08 16:46 146 3 gusting 6 26.7
2020-Jul-08 16:31 196 4 gusting 7 26.7
2020-Jul-08 16:16 174 4 gusting 9 26.7
2020-Jul-08 16:01 153 5 gusting 10 26.1
2020-Jul-08 15:46 143 4 gusting 8 26.1
2020-Jul-08 15:31 193 3 gusting 6 26.1
2020-Jul-08 15:15 224 3 gusting 8 26.1
2020-Jul-08 15:00 184 3 gusting 7 25.6
2020-Jul-08 14:45 166 4 gusting 8 25.6
2020-Jul-08 14:30 153 4 gusting 8 25.6
2020-Jul-08 14:15 170 4 gusting 7 25.6
2020-Jul-08 14:01 169 2 gusting 6 25.6
2020-Jul-08 13:46 176 3 gusting 7 25.0
2020-Jul-08 13:31 148 4 gusting 7 25.0
2020-Jul-08 13:16 152 4 gusting 6 25.0
2020-Jul-08 13:00 159 2 gusting 5 25.6
2020-Jul-08 12:46 179 2 gusting 5 25.0
2020-Jul-08 12:30 141 3 gusting 5 25.0
2020-Jul-08 12:00 143 2 gusting 5 25.0
2020-Jul-08 11:45 153 1 gusting 3 25.0
2020-Jul-08 11:31 129 2 gusting 5 24.4
2020-Jul-08 11:15 152 2 gusting 5 24.4
2020-Jul-08 11:00 186 1 gusting 6 24.4
2020-Jul-08 10:46 191 2 gusting 5 23.9
2020-Jul-08 10:30 176 1 gusting 4 23.9